Tracking 31027 objects as of 19-Jul-2025
HD Live streaming from Space Station
objects crossing your sky now

COSMOS 886 DEB

Track COSMOS 886 DEB now!
10-day predictions


NORAD ID: 9651
Int'l Code: 1976-126H
Perigee: 540.2 km
Apogee: 1,747.5 km
Inclination: 65.8 °
Period: 108.1 minutes
Semi major axis: 7514 km
RCS: 0.1278 m2 (medium)
Launch date: December 27, 1976
Source: Commonwealth of Independent States (former USSR) (CIS)
Launch site: TYURATAM MISSILE AND SPACE COMPLEX (TTMTR)

Note: This is SATELLITE DEBRIS
Your satellite tracking list
COSMOS 1408 DEB
Track 1 satellite(s)




NASA's NSSDC Master Catalog

Two Line Element Set (TLE):
1  9651U 76126H   25199.71262381  .00001496  00000-0  49245-3 0  9996
2  9651  65.7926 316.1480 0803286 248.9391 102.3990 13.32679574307083
Source of the keplerian elements: AFSPC